• In Germany
  • List of Countries
  • For 7 days
  • Water Temperature
  • Satellite Maps
  • Weather Map
  • Weather Widgets
  • user-avatar
    Login

    Hourly Weather Neuquén

    Today, 26 July, Wednesday

    Time Temperature Precipitation Wind Pressure Humidity
    00:00 +9°C° 0 mm 3 mps 736 mmHg 59%
    01:00 +9°C° 0 mm 3 mps 737 mmHg 58%
    02:00 +8°C° 0 mm 2 mps 736 mmHg 57%
    03:00 +8°C° 0 mm 2 mps 736 mmHg 56%
    04:00 +7°C° 0 mm 2 mps 736 mmHg 56%
    05:00 +7°C° 0 mm 2 mps 736 mmHg 54%
    06:00 +8°C° 0 mm 1 mps 736 mmHg 53%
    07:00 +7°C° 0 mm 1 mps 736 mmHg 52%
    08:00 +9°C° 0 mm 1 mps 736 mmHg 46%
    09:00 +11°C° 0 mm 1 mps 736 mmHg 39%
    10:00 +13°C° 0 mm 1 mps 736 mmHg 33%
    11:00 +14°C° 0 mm 2 mps 736 mmHg 32%
    12:00 +14°C° 0 mm 3 mps 735 mmHg 32%
    13:00 +17°C° 0 mm 4 mps 734 mmHg 31%
    14:00 +17°C° 0 mm 4 mps 734 mmHg 34%
    15:00 +17°C° 0 mm 3 mps 733 mmHg 37%
    16:00 +17°C° 0 mm 3 mps 733 mmHg 40%
    17:00 +16°C° 0 mm 3 mps 733 mmHg 45%
    18:00 +14°C° 0 mm 3 mps 732 mmHg 50%
    19:00 +13°C° 0 mm 3 mps 732 mmHg 55%
    20:00 +12°C° 0 mm 3 mps 732 mmHg 59%
    21:00 +12°C° 0 mm 4 mps 732 mmHg 64%
    22:00 +12°C° 0 mm 4 mps 732 mmHg 69%
    23:00 +11°C° 0 mm 3 mps 732 mmHg 73%

    Tomorrow, 27 July, Thursday

    Time Temperature Precipitation Wind Pressure Humidity
    00:00 +11°C° 0 mm 3 mps 731 mmHg 78%
    01:00 +10°C° 0 mm 3 mps 731 mmHg 82%
    02:00 +10°C° 0 mm 2 mps 731 mmHg 82%
    03:00 +10°C° 0 mm 2 mps 731 mmHg 83%
    04:00 +10°C° 0 mm 1 mps 730 mmHg 83%
    05:00 +10°C° 0 mm 1 mps 730 mmHg 79%
    06:00 +10°C° 0 mm 1 mps 730 mmHg 75%
    07:00 +9°C° 0 mm 1 mps 731 mmHg 71%
    08:00 +12°C° 0 mm 1 mps 731 mmHg 59%
    09:00 +14°C° 0 mm 1 mps 731 mmHg 47%
    10:00 +16°C° 0 mm 2 mps 731 mmHg 35%
    11:00 +17°C° 0 mm 2 mps 731 mmHg 28%
    12:00 +19°C° 0 mm 3 mps 731 mmHg 22%
    13:00 +20°C° 0 mm 4 mps 730 mmHg 15%
    14:00 +19°C° 0 mm 3 mps 730 mmHg 16%
    15:00 +19°C° 0 mm 3 mps 730 mmHg 16%
    16:00 +19°C° 0 mm 2 mps 730 mmHg 17%
    17:00 +17°C° 0 mm 2 mps 730 mmHg 19%
    18:00 +16°C° 0 mm 2 mps 731 mmHg 21%
    19:00 +15°C° 0 mm 2 mps 731 mmHg 23%
    20:00 +15°C° 0 mm 2 mps 731 mmHg 26%
    21:00 +14°C° 0 mm 2 mps 731 mmHg 29%
    22:00 +13°C° 0 mm 2 mps 731 mmHg 32%
    23:00 +13°C° 0 mm 2 mps 731 mmHg 32%

    Day after tomorrow, 28 July, Friday

    Time Temperature Precipitation Wind Pressure Humidity
    00:00 +12°C° 0 mm 2 mps 731 mmHg 32%
    01:00 +12°C° 0 mm 2 mps 731 mmHg 32%
    02:00 +12°C° 0 mm 2 mps 731 mmHg 31%
    03:00 +12°C° 0 mm 2 mps 731 mmHg 29%
    04:00 +12°C° 0 mm 2 mps 730 mmHg 27%
    05:00 +10°C° 0 mm 2 mps 731 mmHg 31%
    06:00 +10°C° 0 mm 3 mps 731 mmHg 35%
    07:00 +10°C° 0 mm 3 mps 732 mmHg 39%
    08:00 +11°C° 0 mm 4 mps 732 mmHg 40%
    09:00 +12°C° 0 mm 4 mps 733 mmHg 40%
    10:00 +13°C° 0 mm 5 mps 733 mmHg 41%
    11:00 +14°C° 0 mm 4 mps 733 mmHg 40%
    12:00 +14°C° 0 mm 4 mps 733 mmHg 39%
    13:00 +15°C° 0 mm 4 mps 732 mmHg 38%
    14:00 +14°C° 0.1 mm 4 mps 733 mmHg 41%
    15:00 +14°C° 0.1 mm 5 mps 733 mmHg 43%
    16:00 +13°C° 0.1 mm 5 mps 733 mmHg 46%
    17:00 +12°C° 0.3 mm 4 mps 734 mmHg 51%
    18:00 +11°C° 0.3 mm 4 mps 734 mmHg 57%
    19:00 +10°C° 0.3 mm 3 mps 735 mmHg 62%
    20:00 +10°C° 0.3 mm 3 mps 736 mmHg 65%
    21:00 +9°C° 0.3 mm 2 mps 736 mmHg 68%
    22:00 +9°C° 0.3 mm 2 mps 737 mmHg 71%
    23:00 +9°C° 0.2 mm 2 mps 737 mmHg 70%

    29 July, Saturday

    Time Temperature Precipitation Wind Pressure Humidity
    00:00 +9°C° 0.2 mm 3 mps 737 mmHg 69%
    01:00 +9°C° 0.2 mm 3 mps 737 mmHg 69%
    02:00 +7°C° 0.1 mm 4 mps 737 mmHg 63%
    03:00 +7°C° 0.1 mm 5 mps 738 mmHg 57%
    04:00 +7°C° 0.1 mm 6 mps 738 mmHg 51%
    05:00 +5°C° 0 mm 6 mps 739 mmHg 48%
    06:00 +5°C° 0 mm 6 mps 739 mmHg 44%
    07:00 +6°C° 0 mm 5 mps 740 mmHg 41%
    08:00 +6°C° 0 mm 5 mps 740 mmHg 38%
    09:00 +7°C° 0 mm 5 mps 741 mmHg 35%
    10:00 +7°C° 0 mm 5 mps 741 mmHg 32%
    11:00 +8°C° 0 mm 5 mps 741 mmHg 30%
    12:00 +10°C° 0 mm 4 mps 741 mmHg 27%
    13:00 +10°C° 0 mm 3 mps 740 mmHg 25%
    14:00 +10°C° 0 mm 3 mps 741 mmHg 26%
    15:00 +10°C° 0 mm 3 mps 741 mmHg 26%
    16:00 +10°C° 0 mm 2 mps 741 mmHg 27%
    17:00 +10°C° 0 mm 2 mps 741 mmHg 30%
    18:00 +9°C° 0 mm 2 mps 742 mmHg 34%
    19:00 +8°C° 0 mm 2 mps 742 mmHg 37%
    20:00 +8°C° 0 mm 2 mps 743 mmHg 40%
    21:00 +8°C° 0 mm 2 mps 743 mmHg 43%
    22:00 +7°C° 0 mm 2 mps 744 mmHg 46%
    23:00 +7°C° 0 mm 3 mps 744 mmHg 50%

    30 July, Sunday

    Time Temperature Precipitation Wind Pressure Humidity
    00:00 +5°C° 0 mm 3 mps 744 mmHg 54%
    01:00 +5°C° 0 mm 3 mps 744 mmHg 58%
    02:00 +5°C° 0 mm 3 mps 744 mmHg 57%
    03:00 +4°C° 0 mm 3 mps 744 mmHg 56%
    04:00 +4°C° 0 mm 3 mps 744 mmHg 55%
    05:00 +3°C° 0 mm 3 mps 745 mmHg 55%
    06:00 +3°C° 0 mm 3 mps 745 mmHg 54%
    07:00 +2°C° 0 mm 3 mps 746 mmHg 54%
    08:00 +4°C° 0 mm 3 mps 746 mmHg 49%
    09:00 +5°C° 0 mm 4 mps 747 mmHg 45%
    10:00 +6°C° 0 mm 5 mps 747 mmHg 40%
    11:00 +7°C° 0 mm 5 mps 747 mmHg 38%
    12:00 +7°C° 0 mm 4 mps 746 mmHg 36%
    13:00 +8°C° 0 mm 4 mps 746 mmHg 33%
    14:00 +8°C° 0 mm 4 mps 745 mmHg 33%
    15:00 +8°C° 0 mm 4 mps 745 mmHg 33%
    16:00 +8°C° 0 mm 4 mps 745 mmHg 33%
    17:00 +7°C° 0 mm 4 mps 745 mmHg 36%
    18:00 +6°C° 0 mm 4 mps 745 mmHg 39%
    19:00 +7°C° 0 mm 3 mps 745 mmHg 42%
    20:00 +5°C° 0 mm 3 mps 745 mmHg 44%
    21:00 +5°C° 0 mm 3 mps 745 mmHg 46%
    22:00 +5°C° 0 mm 3 mps 744 mmHg 48%
    23:00 +4°C° 0 mm 3 mps 744 mmHg 49%

    31 July, Monday

    Time Temperature Precipitation Wind Pressure Humidity
    00:00 +4°C° 0 mm 3 mps 744 mmHg 51%
    01:00 +4°C° 0 mm 3 mps 743 mmHg 52%
    02:00 +4°C° 0 mm 3 mps 743 mmHg 54%
    03:00 +3°C° 0 mm 3 mps 742 mmHg 56%
    04:00 +3°C° 0 mm 3 mps 741 mmHg 58%
    05:00 +3°C° 0 mm 3 mps 741 mmHg 60%
    06:00 +3°C° 0 mm 3 mps 741 mmHg 63%
    07:00 +2°C° 0 mm 3 mps 740 mmHg 65%
    08:00 +4°C° 0 mm 4 mps 740 mmHg 63%
    09:00 +5°C° 0 mm 5 mps 740 mmHg 61%
    10:00 +7°C° 0 mm 6 mps 739 mmHg 59%
    11:00 +7°C° 0 mm 6 mps 739 mmHg 58%
    12:00 +8°C° 0 mm 6 mps 738 mmHg 57%
    13:00 +9°C° 0 mm 6 mps 737 mmHg 56%
    14:00 +9°C° 0 mm 5 mps 736 mmHg 57%
    15:00 +9°C° 0 mm 5 mps 736 mmHg 58%
    16:00 +9°C° 0 mm 5 mps 736 mmHg 58%
    17:00 +10°C° 0 mm 4 mps 736 mmHg 61%
    18:00 +8°C° 0 mm 4 mps 736 mmHg 63%
    19:00 +8°C° 0 mm 4 mps 736 mmHg 65%
    20:00 +9°C° 0 mm 3 mps 735 mmHg 66%
    21:00 +9°C° 0 mm 3 mps 735 mmHg 68%
    22:00 +9°C° 0 mm 3 mps 735 mmHg 69%
    23:00 +8°C° 0 mm 3 mps 735 mmHg 72%
    Show more